Hannover, Germany

2:39 AM CET on December 04, 2016 (GMT +0100)
Hannover

Weather History for EDDV - January, 2013

Change the Weather History Date:

Monday, January 7, 2013

  Actual Average Record
Temperature  
Mean Temperature 44 °F -  
Max Temperature 46 °F 39 °F 54 °F (2014)
Min Temperature 41 °F 31 °F 10 °F (2009)
Degree Days  
Heating Degree Days 22    
Moisture  
Dew Point 42 °F    
Average Humidity 94    
Maximum Humidity 100    
Minimum Humidity 87    
Precipitation  
Precipitation 0.00 in - - ()
Sea Level Pressure  
Sea Level Pressure 30.33 in    
Wind  
Wind Speed 7 mph ()    
Max Wind Speed 16 mph    
Max Gust Speed -    
Visibility 6.2 miles    
Events Rain    
Averages and records for this station are not official NWS values.
T = Trace of Precipitation, MM = Missing Value Source: Averaged Metar Reports

Daily Weather History Graph

Daily Weather History Graph

Search for Another Location

Airport or City:

Trip Planner

Search our weather history database for the weather conditions in past years. The results will help you decide how hot, cold, wet, or windy it might be!

Date:

Astronomy

Jan. 07, 2013 Rise Set
Actual Time 8:29 AM CET 4:25 PM CET
Civil Twilight 7:49 AM CET 5:06 PM CET
Nautical Twilight 7:05 AM CET 5:49 PM CET
Astronomical Twilight 6:24 AM CET 6:31 PM CET
Moon 3:22 AM CET (1/7) 12:33 PM CET (1/7)
Length of Visible Light 9h 16m
Length of Day
7h 55m
Waning Crescent, 25% of the Moon is Illuminated
Jan 7
Waning Crescent
Jan 11
New
Jan 19
First Quarter
Jan 27
Full
Feb 3
Last Quarter

Hourly Weather History & Observations

Time (CET) Temp. Windchill Dew Point Humidity Pressure Visibility Wind Dir Wind Speed Gust Speed Precip Events Conditions
12:00 AM 43 °F - 42 °F 92% 30.36 in 9 mi NW 15.7 mph - - Rain Light Drizzle
12:20 AM 42.8 °F 36.6 °F 41.0 °F 93% 30.33 in 6.2 mi NW 11.5 mph - N/A   Light Drizzle
12:50 AM 42.8 °F 38.0 °F 42.8 °F 100% 30.33 in 6.2 mi WNW 8.1 mph - N/A   Light Drizzle
1:00 AM 43 °F - 42 °F 94% 30.35 in 6 mi WNW 6.7 mph - - Rain Light Drizzle
1:20 AM 42.8 °F 36.2 °F 41.0 °F 93% 30.33 in 6.2 mi WNW 12.7 mph - N/A   Light Drizzle
1:50 AM 42.8 °F 37.0 °F 41.0 °F 93% 30.33 in 6.2 mi WNW 10.4 mph - N/A   Light Drizzle
2:00 AM 43 °F - 41 °F 91% 30.35 in 7 mi WNW 8.9 mph - - Rain Light Drizzle
2:20 AM 42.8 °F 37.0 °F 41.0 °F 93% 30.33 in 6.2 mi NW 10.4 mph - N/A   Light Drizzle
2:50 AM 42.8 °F 40.1 °F 42.8 °F 100% 30.33 in 6.2 mi NW 4.6 mph - N/A   Light Drizzle
3:00 AM 42 °F - 42 °F 98% 30.35 in 7 mi NW 4.5 mph - - Rain Light Drizzle
3:20 AM 42.8 °F 37.0 °F 41.0 °F 93% 30.33 in 6.2 mi NW 10.4 mph - N/A   Light Drizzle
3:50 AM 42.8 °F 39.3 °F 41.0 °F 93% 30.33 in 5.6 mi NW 5.8 mph - N/A   Light Drizzle
4:20 AM 41.0 °F 35.2 °F 41.0 °F 100% 30.33 in 5.6 mi WNW 9.2 mph - N/A   Light Drizzle
4:50 AM 41.0 °F 34.3 °F 41.0 °F 100% 30.33 in 6.2 mi WNW 11.5 mph - N/A   Light Drizzle
5:00 AM 42 °F - 40 °F 92% 30.36 in 7 mi WNW 11.2 mph - - Rain Light Drizzle
5:20 AM 41.0 °F 36.4 °F 41.0 °F 100% 30.33 in 6.2 mi WNW 6.9 mph - N/A   Light Drizzle
5:50 AM 41.0 °F 37.1 °F 41.0 °F 100% 30.33 in 6.2 mi WNW 5.8 mph - N/A   Overcast
6:00 AM 42 °F - 41 °F 94% 30.36 in 6 mi WNW 4.5 mph - - Rain Light Drizzle
6:20 AM 41.0 °F 38.0 °F 41.0 °F 100% 30.33 in 6.2 mi WNW 4.6 mph - N/A   Light Drizzle
6:50 AM 41.0 °F 36.4 °F 41.0 °F 100% 30.33 in 6.2 mi WNW 6.9 mph - N/A   Light Drizzle
7:00 AM 42 °F - 41 °F 95% 30.37 in 6 mi WNW 6.7 mph - - Rain Light Drizzle
7:20 AM 41.0 °F 36.4 °F 41.0 °F 100% 30.33 in 6.2 mi NW 6.9 mph - N/A   Light Drizzle
7:50 AM 41.0 °F 36.4 °F 41.0 °F 100% 30.33 in 6.2 mi WNW 6.9 mph - N/A   Light Drizzle
8:00 AM 42 °F - 40 °F 92% 30.37 in 6 mi WNW 6.7 mph - - Rain Light Drizzle
8:20 AM 41.0 °F 37.1 °F 41.0 °F 100% 30.33 in 6.2 mi West 5.8 mph - N/A   Mostly Cloudy
8:50 AM 41.0 °F 39.0 °F 39.2 °F 93% 30.33 in 6.2 mi West 3.5 mph - N/A   Mostly Cloudy
9:00 AM 42 °F - 40 °F 89% 30.36 in 9 mi West 2.2 mph - - Rain Light Drizzle
9:20 AM 41.0 °F 39.0 °F 41.0 °F 100% 30.33 in 6.2 mi WNW 3.5 mph - N/A   Mostly Cloudy
9:50 AM 42.8 °F 40.1 °F 41.0 °F 93% 30.33 in 6.2 mi WNW 4.6 mph - N/A   Mostly Cloudy
10:20 AM 42.8 °F 41.1 °F 41.0 °F 93% 30.36 in 6.2 mi WSW 3.5 mph - N/A   Mostly Cloudy
10:50 AM 42.8 °F 39.3 °F 41.0 °F 93% 30.36 in 6.2 mi West 5.8 mph - N/A   Mostly Cloudy
11:00 AM 43 °F - 41 °F 89% 30.38 in 7 mi West 4.5 mph - -   Overcast
11:20 AM 42.8 °F 40.1 °F 41.0 °F 93% 30.36 in 6.2 mi West 4.6 mph - N/A   Mostly Cloudy
11:50 AM 42.8 °F 38.6 °F 41.0 °F 93% 30.36 in 6.2 mi West 6.9 mph - N/A   Mostly Cloudy
12:00 PM 43 °F - 40 °F 87% 30.38 in 7 mi West 4.5 mph - -   Mostly Cloudy
12:20 PM 42.8 °F 39.3 °F 39.2 °F 87% 30.33 in 6.2 mi WSW 5.8 mph - N/A   Mostly Cloudy
12:50 PM 42.8 °F 40.1 °F 41.0 °F 93% 30.33 in 6.2 mi West 4.6 mph - N/A   Mostly Cloudy
1:20 PM 42.8 °F 40.1 °F 41.0 °F 93% 30.33 in 6.2 mi West 4.6 mph - N/A   Mostly Cloudy
1:50 PM 42.8 °F 41.1 °F 41.0 °F 93% 30.33 in 6.2 mi West 3.5 mph - N/A   Mostly Cloudy
2:00 PM 43 °F - 40 °F 87% 30.36 in 9 mi West 4.5 mph - -   Mostly Cloudy
2:20 PM 44.6 °F 43.1 °F 41.0 °F 87% 30.33 in 6.2 mi SW 3.5 mph - N/A   Mostly Cloudy
2:50 PM 44.6 °F 42.2 °F 41.0 °F 87% 30.30 in 6.2 mi SSW 4.6 mph - N/A   Mostly Cloudy
3:00 PM 44 °F - 41 °F 87% 30.34 in 9 mi SSW 4.5 mph - -   Mostly Cloudy
3:20 PM 44.6 °F 42.2 °F 41.0 °F 87% 30.30 in 6.2 mi SW 4.6 mph - N/A   Mostly Cloudy
3:50 PM 44.6 °F 41.4 °F 42.8 °F 93% 30.30 in 6.2 mi West 5.8 mph - N/A   Mostly Cloudy
4:20 PM 44.6 °F 42.2 °F 42.8 °F 93% 30.30 in 6.2 mi West 4.6 mph - N/A   Mostly Cloudy
4:50 PM 44.6 °F 41.4 °F 42.8 °F 93% 30.30 in 6.2 mi WSW 5.8 mph - N/A   Mostly Cloudy
5:20 PM 44.6 °F 41.4 °F 42.8 °F 93% 30.30 in 6.2 mi WSW 5.8 mph - N/A   Mostly Cloudy
5:50 PM 44.6 °F 41.4 °F 42.8 °F 93% 30.30 in 6.2 mi WSW 5.8 mph - N/A   Mostly Cloudy
6:00 PM 45 °F - 43 °F 90% 30.32 in 8 mi SSW 4.5 mph - -   Mostly Cloudy
6:20 PM 44.6 °F 42.2 °F 42.8 °F 93% 30.30 in 6.2 mi West 4.6 mph - N/A   Mostly Cloudy
6:50 PM 44.6 °F 41.4 °F 42.8 °F 93% 30.30 in 6.2 mi West 5.8 mph - N/A   Mostly Cloudy
7:00 PM 45 °F - 43 °F 92% 30.32 in 8 mi WSW 4.5 mph - - Rain Light Rain
7:20 PM 44.6 °F 43.1 °F 42.8 °F 93% 30.30 in 6.2 mi West 3.5 mph - N/A   Mostly Cloudy
7:50 PM 44.6 °F 41.4 °F 42.8 °F 93% 30.30 in 6.2 mi WSW 5.8 mph - N/A   Mostly Cloudy
8:00 PM 45 °F - 43 °F 91% 30.32 in 9 mi WSW 4.5 mph - -   Mostly Cloudy
8:20 PM 46.4 °F 42.9 °F 42.8 °F 87% 30.30 in 6.2 mi West 6.9 mph - N/A   Mostly Cloudy
8:50 PM 44.6 °F 40.7 °F 42.8 °F 93% 30.30 in 5.0 mi West 6.9 mph - N/A   Mostly Cloudy
9:00 PM 45 °F - 44 °F 92% 30.32 in 5 mi SW 4.5 mph - - Rain Light Drizzle
9:20 PM 44.6 °F 40.7 °F 44.6 °F 100% 30.30 in 5.0 mi WSW 6.9 mph - N/A   Mostly Cloudy
9:50 PM 44.6 °F 41.4 °F 44.6 °F 100% 30.27 in 3.7 mi WSW 5.8 mph - N/A   Mostly Cloudy
10:20 PM 44.6 °F 40.7 °F 44.6 °F 100% 30.27 in 4.3 mi WSW 6.9 mph - N/A   Mostly Cloudy
10:50 PM 44.6 °F 39.7 °F 42.8 °F 93% 30.27 in 4.3 mi WSW 9.2 mph - N/A   Mostly Cloudy
11:00 PM 45 °F - 44 °F 92% 30.30 in 4 mi SSW 6.7 mph - -   Mist
11:20 PM 46.4 °F 41.9 °F 42.8 °F 87% 30.27 in 4.3 mi WSW 9.2 mph - N/A   Mostly Cloudy
11:50 PM 44.6 °F 40.7 °F 42.8 °F 93% 30.24 in 3.7 mi WSW 6.9 mph - N/A   Mostly Cloudy